Location: Sternwarte Stuttgart
(48.7670°N, 9.1830°E)
Time: 12:08:16
(UTC+01:00)

CZ-4 R/B - Pass Details

Date: 24 January 2019
Orbit: 533 x 597 km, 97.8° (Epoch: 17 February)

Event Time Altitude Azimuth Distance (km) Brightness Sun altitude
Rises 06:24:03 0° 27° (NNE) 2,707 5.1 -16.2°
Reaches altitude 10° 06:26:41 10° 46° (NE) 1,817 4.4 -15.8°
Maximum altitude 06:29:30 19° 93° (E) 1,349 4.4 -15.3°
Drops below altitude 10° 06:32:20 10° 139° (SE) 1,828 4.8 -14.8°
Sets 06:34:59 0° 157° (SSE) 2,729 5.4 -14.4°
